Regional Weather Roundup
Issued by NWS

Home | Current Version | Previous Version | Text Only | Print | Product List | Glossary On
Versions: 1 2 3 4 5 6 7 8 9 10 11 12 13 14 15 16 17 18 19 20 21 22 23 24 25 26 27 28 29 30 31 32 33 34 35 36 37 38 39 40 41 42 43 44 45 46 47 48 49 50
000
ASUS45 KREV 162110
RWRNV
NEVADA REGIONAL WEATHER ROUNDUP
NATIONAL WEATHER SERVICE RENO NV
200 PM PDT WED AUG 16 2017

NOTE: "FAIR" INDICATES FEW OR NO CLOUDS BELOW 12,000 FEET WITH NO
SIGNIFICANT WEATHER AND/OR OBSTRUCTIONS TO VISIBILITY.

NVZ001-003-004-162200-
WESTERN NEVADA

CITY           SKY/WX    TMP DP  RH WIND       PRES   REMARKS
RENO           MOSUNNY   89  40  17 VRB6      30.05F
CARSON CITY    FAIR      86  37  17 NE13      30.06F
MINDEN         FAIR      86  41  20 NW5       30.06F
FALLON         PTSUNNY   87  34  15 W5        30.02F
LOVELOCK       PTSUNNY   90  38  16 VRB5      30.01F
HAWTHORNE      SUNNY     90  37  15 N14       30.01F
$$

NVZ002-CAZ072-073-162200-
NORTHERN AND CENTRAL SIERRA

CITY           SKY/WX    TMP DP  RH WIND       PRES   REMARKS
S. LAKE TAHOE  SUNNY     78  46  32 VRB5      30.17S
TRUCKEE        MOSUNNY   79  45  29 N5        30.16F
SQUAW VLY 8000   N/A     68  41  37 E3          N/A
SUSANVILLE     DRIZZLE   88  34  14 SE6       30.06F
MAMMOTH LAKES  FAIR      81  31  16 E14       30.22S
BRIDGEPORT     FAIR      78  37  22 E9G18     30.17S
$$

NVZ030-031-036-162200-
NORTHERN NEVADA

CITY           SKY/WX    TMP DP  RH WIND       PRES   REMARKS
ELKO           PTSUNNY   83  29  14 SW6       30.09F
WINNEMUCCA     MOSUNNY   89  37  16 CALM      30.03F
WENDOVER       MOSUNNY   85  34  16 SE8       30.04F
$$

NVZ035-037-162200-
CENTRAL NEVADA

CITY           SKY/WX    TMP DP  RH WIND       PRES   REMARKS
ELY            CLOUDY    76  36  23 CALM      30.18F
$$

NVZ013-014-162200-
SOUTH CENTRAL NEVADA

CITY           SKY/WX    TMP DP  RH WIND       PRES   REMARKS
TONOPAH        MOSUNNY   86  38  18 SE8       30.11F
$$

NVZ017-020-022-162200-
SOUTHERN NEVADA

CITY           SKY/WX    TMP DP  RH WIND       PRES   REMARKS
LAS VEGAS      MOSUNNY   96  38  13 SE9G16    29.90F
N. LAS VEGAS   SUNNY     94  33  11 SE8G18    29.90F
NELLIS AFB     SUNNY     96  37  12 SW6       29.88F
HENDERSON      SUNNY     94  39  14 E8        29.94F
MERCURY        SUNNY     94  35  12 NE8G16    29.95F
$$



USA.gov is the U.S. government's official web portal to all federal, state and local government web resources and services.